Flag for Reunion (French) Weather past 2 weeks in Saint-Denis, Reunion (French)

Now
72 °F

Clear.


Feels Like: 72 °F
Forecast: 72 / 81 °F
Wind: 9 mph from South

Location: Saint-Denis / Gillot

Current Time: Oct 26, 2014 at 4:37:02 AM

Latest Report: Oct 26, 2014 at 4:00 AM


Visibility: N/A

Pressure: 29.98 "Hg

Humidity: 78%

Dew point: 64 °F

Location of Saint-DenisLocation

Historic Weather in Saint-Denis — Graph

°F

Saint-Denis temperature yesterday

Maximum temperature yesterday: 84 °F (at 11:30 AM)
Minimum temperature yesterday: 70 °F (at 1:00 AM)
Average temperature yesterday: 77 °F

Past Weeks' High & Low Weather Summary

 TemperatureHumidityPressure
High86 °F (Oct 20, 11:00 AM)94% (Oct 14, 6:00 AM)30.18 "Hg (Oct 14, 6:00 AM)
Low66 °F (Oct 13, 3:00 AM)46% (Oct 20, 11:00 AM)29.92 "Hg (Oct 16, 3:00 PM)
Average77 °F71%30.04 "Hg
* Reported Oct 11 3:00 AM — Oct 26 3:30 AM, Saint-Denis, Weather by CustomWeather, © 2014

Note: Actual official high and low records may vary slightly from our data, if they occured in-between our weather recording intervals... More about our weather records

Advertising

Saint-Denis weather history for previous 24 hours

 ConditionsComfort  
Time TempWeatherWind HumidityBarometerVisibility
3:30 AM
Oct 26
72 °FClear.8 mph73%29.98 "HgN/A
3:00 AM72 °FClear.9 mph73%29.98 "HgN/A
2:30 AM72 °FClear.10 mph73%29.98 "HgN/A
2:00 AM72 °FClear.9 mph78%30.01 "HgN/A
1:30 AM72 °FPassing clouds.8 mph73%30.01 "HgN/A
1:00 AM72 °FClear.8 mph73%30.01 "HgN/A
12:30 AM72 °FClear.7 mph73%30.01 "HgN/A
12:00 AM72 °FClear.8 mph73%30.04 "HgN/A
10:30 PM
Oct 25
73 °FPassing clouds.8 mph69%30.04 "HgN/A
9:00 PM73 °FPassing clouds.8 mph69%30.04 "HgN/A
8:30 PM73 °FPassing clouds.7 mph74%30.04 "HgN/A
8:00 PM73 °FPassing clouds.8 mph74%30.04 "HgN/A
7:30 PM75 °FPassing clouds.6 mph69%30.01 "HgN/A
7:00 PM75 °FPassing clouds.6 mph74%30.01 "HgN/A
6:30 PM77 °FPassing clouds.6 mph69%30.01 "HgN/A
6:00 PM77 °FPassing clouds.6 mph74%29.98 "HgN/A
5:30 PM79 °FPassing clouds.6 mph70%29.98 "HgN/A
5:00 PM81 °FScattered clouds.6 mph62%29.98 "HgN/A
4:30 PM82 °FScattered clouds.7 mph58%29.98 "HgN/A
4:00 PM82 °FScattered clouds.7 mph58%29.98 "HgN/A
3:30 PM81 °FScattered clouds.3 mph66%29.98 "HgN/A
3:00 PM81 °FScattered clouds.6 mph66%29.98 "HgN/A
2:30 PM81 °FScattered clouds.6 mph66%29.98 "HgN/A
2:00 PM81 °FPartly sunny.6 mph66%29.98 "HgN/A
1:30 PM81 °FPartly sunny.7 mph66%30.01 "HgN/A
1:00 PM82 °FBroken clouds.9 mph62%30.01 "HgN/A
12:30 PM81 °FScattered showers. Broken clouds.13 mph70%30.01 "HgN/A
12:00 PM81 °FScattered showers. Scattered clouds.14 mph74%30.01 "HgN/A
11:30 AM84 °FScattered showers. Scattered clouds.15 mph66%30.01 "HgN/A
11:00 AM82 °FScattered showers. Passing clouds.15 mph66%30.01 "HgN/A
10:30 AM82 °FPassing clouds.15 mph66%30.04 "HgN/A
10:00 AM82 °FPassing clouds.16 mph66%30.04 "HgN/A
9:30 AM81 °FScattered showers. Scattered clouds.18 mph66%30.04 "HgN/A
8:50 AM81 °FScattered showers. Scattered clouds.15 mph66%30.04 "HgN/A
8:30 AM81 °FScattered showers. Scattered clouds.14 mph66%30.04 "HgN/A
8:00 AM79 °FPassing clouds.13 mph70%30.01 "HgN/A
7:30 AM79 °FPassing clouds.14 mph70%30.01 "HgN/A
7:00 AM77 °FPassing clouds.12 mph69%30.01 "HgN/A
6:30 AM73 °FPassing clouds.12 mph78%30.01 "HgN/A
6:00 AM73 °FPassing clouds.12 mph78%30.01 "HgN/A
5:30 AM73 °FPassing clouds.12 mph83%30.01 "HgN/A
5:00 AM73 °FPassing clouds.10 mph83%30.01 "HgN/A
4:00 AM73 °FClear.12 mph83%30.01 "HgN/A
Weather by CustomWeather, © 2014

See weather overviewHow to use our weather pages